Regional Weather Roundup
Issued by NWS

Home | Current Version | Previous Version | Text Only | Print | Product List | Glossary On
Versions: 1 2 3 4 5 6 7 8 9 10 11 12 13 14 15 16 17 18 19 20 21 22 23 24 25 26 27 28 29 30 31 32 33 34 35 36 37 38 39 40 41 42 43 44 45 46 47 48 49 50
000
ASUS43 KDTX 021401
RWRMI
MICHIGAN HOURLY REGIONAL WEATHER ROUNDUP
NATIONAL WEATHER SERVICE DETROIT/PONTIAC MI
900 AM EST MON MAR 02 2015

NOTE: "FAIR" INDICATES FEW OR NO CLOUDS BELOW 12,000 FEET WITH NO
SIGNIFICANT WEATHER AND/OR OBSTRUCTION TO VISIBILITY.

MIZ047>049-052>055-059>063-066>070-074>076-081>083-021500-
SOUTHEAST LOWER MICHIGAN

CITY           SKY/WX    TMP DP  RH WIND       PRES   REMARKS
ADRIAN         MOSUNNY   15  10  80 W6        30.44R WCI   6
ALMA           SUNNY     19  11  70 W7        30.39R WCI  10
ANN ARBOR      SUNNY     20  10  65 W8        30.41R WCI  10
BAD AXE        SUNNY     19  11  73 W10       30.35R WCI   7
CARO           SUNNY     19  10  68 W8        30.37R WCI   8
DETROIT CITY   SUNNY     25  11  55 NW9G17    30.40R WCI  15
DETROIT        MOSUNNY   23  11  60 W9        30.42R WCI  13
FLINT          SUNNY     21  10  62 W14       30.39R WCI   8
GROSSE ILE     SUNNY     21  14  73 SW7       30.41R WCI  13
HILLSDALE      MOSUNNY   19  12  72 W7        30.39R WCI  10
HOWELL         SUNNY     20  10  66 W8        30.38R WCI  10

CITY           SKY/WX    TMP DP  RH WIND       PRES   REMARKS
JACKSON        SUNNY     20  11  68 W9        30.40R WCI   9
LAMBERTVILLE   SUNNY     21  14  73 W5        30.45R WCI  15
LANSING        SUNNY     20  10  65 W10       30.41R WCI   9
LAPEER         FAIR      20  10  64 NW7G18    30.37R WCI  12
MASON          SUNNY     20  11  66 W6        30.40R WCI  13
MONROE         SUNNY     16  10  79 SW7       30.42R WCI   6
MT. CLEMENS    SUNNY     23  11  61 W13G21    30.36R WCI  11
PONTIAC        SUNNY     21  10  62 NW10      30.36R WCI  10
PORT HOPE        N/A     21  11  65 NW18      30.32R WCI   6
PORT HURON     SUNNY     21  10  63 W9        30.37R WCI  11
TRI CITIES     SUNNY     19  10  68 W9        30.39R WCI   8
TROY           SUNNY     25  11  57 W9        30.41R WCI  15
SAGINAW HB     SUNNY     23  12  63 W10       30.39R WCI  12
$$
MIZ043>046-050>051-056>058-064>065-071>073-077>080-021500-
SOUTHWEST LOWER MICHIGAN

CITY           SKY/WX    TMP DP  RH WIND       PRES   REMARKS
BATTLE CREEK   SUNNY     21  12  68 W7        30.41R WCI  12
BENTON HARBOR  SUNNY     22  16  78 W5        30.46R WCI  16
BIG RAPIDS     FLURRIES  22  14  71 W6        30.36R WCI  14
COLDWATER      MOSUNNY   15  10  81 SW7       30.43R WCI   5
FREMONT        FAIR      18   9  70 W3        30.40R
HOLLAND        PTSUNNY   24  15  68 NW5       30.44R WCI  18
GRAND RAPIDS   MOSUNNY   22  12  65 W7        30.41R WCI  13
IONIA          FAIR      22  13  66 NW7       30.40R WCI  14
KALAMAZOO      MOSUNNY   19  12  74 W5        30.42R WCI  12
LUDINGTON      CLOUDY    23  11  60 N10       30.42R WCI  12
MARSHALL       SUNNY     18   9  68 W5        30.41R WCI  11
MOUNT PLEASANT CLOUDY    21  11  65 W7        30.38R WCI  13
MUSKEGON       PTSUNNY   25  14  63 NW7       30.43R WCI  17
SOUTH HAVEN    MOSUNNY   26  17  69 NW5       30.45R WCI  20
$$
MIZ016>042-021500-
NORTHERN LOWER MICHIGAN

CITY           SKY/WX    TMP DP  RH WIND       PRES   REMARKS
ALPENA         SUNNY     19   8  62 NW14G20   30.31R WCI   6
BEAVER ISLAND  SUNNY     18   9  68 W10       30.36R WCI   6
BELLAIRE       MOSUNNY   19   8  61 W7        30.39R WCI  10
CADILLAC       LGT SNOW  18  11  72 NW14      30.32R WCI   5
CHARLEVOIX     SUNNY     17   9  69 W12G18    30.39R WCI   4
FRANKFORT      PTSUNNY   21   9  60 N7        30.41R WCI  12
GAYLORD        MOSUNNY   16   9  74 VRB7      30.29R WCI   6
GRAYLING       PTSUNNY   17   7  64 NW17G23   30.32R WCI   1
HARBOR SPRINGS SUNNY     18  10  70 W8        30.34R WCI   8
HOUGHTON LAKE  CLOUDY    17   9  70 NW10      30.33R WCI   5
MANISTEE       PTSUNNY   21   7  53 NW15      30.42R WCI   8
OSCODA         SUNNY     20  10  64 NW13      30.32R HAZE    WCI   7
PELLSTON       SUNNY     17   6  62 W15G23    30.34R WCI   2
ROGERS CITY    SUNNY     19  11  70 NW16      30.32R WCI   5
TRAVERSE CITY  MOSUNNY   20  10  65 NW8       30.38R WCI  10
$$
MIZ007>008-015-021500-
EASTERN UPPER MICHIGAN

CITY           SKY/WX    TMP DP  RH WIND       PRES   REMARKS
KINROSS        PTSUNNY   18  12  79 W12G17    30.28R WCI   5
MACKINAC ISLAN SUNNY     15   7  68 W14G20    30.31R WCI   1
NEWBERRY       PTSUNNY   14   7  72 W10       30.32R WCI   1
S. S. MARIE    SUNNY     17   6  62 W13G26    30.27R WCI   4
MUNISING         N/A     19   5  54 NW8       30.36R WCI   9
$$
MIZ004>006-011>014-085-021500-
CENTRAL UPPER MICHIGAN

CITY           SKY/WX    TMP DP  RH WIND       PRES   REMARKS
MANISTIQUE     CLOUDY    15   6  65 W13       30.36R WCI   2
ESCANABA       SUNNY     12   7  79 W9        30.41R WCI   0
MENOMINEE      SUNNY     12   5  73 W5        30.42R WCI   4
SAWYER-GWINN   SUNNY     12   3  67 W9        30.32R WCI   0
$$
MIZ001>003-009>011-084-021500-
WESTERN UPPER MICHIGAN

CITY           SKY/WX    TMP DP  RH WIND       PRES   REMARKS
IRON MOUNTAIN  MOSUNNY   15   7  70 W6        30.36R WCI   6
HOUGHTON       SUNNY     11   3  70 W10       30.33R WCI  -3
COPPER HARBOR    N/A     13   3  64 N12       30.34R WCI  -1
IRONWOOD       MOSUNNY    9   1  72 SW5       30.34R WCI   0
$$

ABBREVIATIONS USED IN REMARKS
   TC - TEMPERATURE IN CELSIUS
  WCI - WIND CHILL INDEX
   HX - HEAT INDEX
  VSB - VISIBILITY




USA.gov is the U.S. government's official web portal to all federal, state and local government web resources and services.